GFSNIL_prec_precacc24_129.txt.gz
Total_Precipitation_Accumulation
0.00 0.00 0.01 0.00 0.01 0.03 0.03 0.02 0.05 0.14 0.18 0.19 0.32 0.35 0.33 0.27 0.21 0.21 0.23 0.23 0.21 0.12
0.02 0.01 0.01 0.02 0.01 0.01 0.03 0.05 0.08 0.13 0.15 0.16 0.29 0.32 0.20 0.15 0.17 0.23 0.25 0.37 0.43 0.27
0.07 0.05 0.03 0.03 0.04 0.04 0.02 0.05 0.09 0.15 0.20 0.23 0.30 0.28 0.20 0.16 0.20 0.30 0.22 0.32 0.66 0.66
0.16 0.32 0.31 0.24 0.19 0.17 0.12 0.12 0.14 0.16 0.22 0.18 0.19 0.26 0.18 0.15 0.14 0.25 0.32 0.21 0.23 0.61
0.13 0.28 0.43 0.47 0.41 0.43 0.31 0.36 0.36 0.29 0.29 0.29 0.36 0.31 0.22 0.15 0.19 0.25 0.30 0.18 0.16 0.31
0.16 0.27 0.29 0.43 0.77 0.70 0.55 0.48 0.55 0.49 0.48 0.32 0.36 0.30 0.25 0.22 0.19 0.23 0.22 0.17 0.34 0.44
0.35 0.55 0.56 0.40 0.47 0.68 0.84 0.75 0.68 0.62 0.69 0.83 0.75 0.57 0.47 0.32 0.29 0.31 0.42 0.48 0.47 0.43
0.51 0.61 0.84 0.62 0.53 0.54 0.76 1.04 0.98 0.88 0.63 0.60 0.62 0.62 0.60 0.58 0.50 0.56 0.64 0.57 0.44 0.40
0.64 0.68 0.72 0.81 0.68 0.49 0.38 0.54 0.96 1.03 0.79 0.72 0.54 0.97 0.99 0.87 0.82 0.71 0.54 0.46 0.33 0.28
0.78 0.79 0.81 0.62 0.58 0.70 0.93 0.92 0.85 1.41 1.30 1.01 1.17 1.29 1.39 1.34 1.11 0.97 0.93 0.78 0.69 0.44
0.38 0.51 0.50 0.62 0.70 0.83 1.15 1.35 1.43 1.21 1.56 1.56 1.43 1.91 1.68 1.26 1.18 1.21 1.18 1.35 1.08 0.89
0.29 0.29 0.22 0.35 0.65 0.87 0.88 1.03 1.29 1.47 1.18 1.36 1.86 1.78 1.84 1.85 1.36 1.21 1.05 1.09 1.12 1.12
0.17 0.16 0.24 0.28 0.38 0.65 0.84 1.05 0.94 0.95 1.19 1.26 1.43 1.55 1.52 1.68 2.06 1.92 1.79 1.29 1.17 1.24
0.06 0.12 0.23 0.21 0.32 0.42 0.69 0.81 0.94 0.95 0.91 0.93 1.13 1.28 1.29 1.13 1.22 1.62 1.66 1.72 1.68 1.82

GFSNIL_prec_precacc24_132.txt.gz
Total_Precipitation_Accumulation
0.00 0.00 0.00 0.00 0.00 0.02 0.02 0.02 0.05 0.11 0.15 0.16 0.24 0.22 0.28 0.27 0.21 0.22 0.23 0.23 0.21 0.12
0.00 0.00 0.00 0.00 0.00 0.00 0.03 0.05 0.07 0.08 0.05 0.09 0.16 0.21 0.17 0.15 0.17 0.23 0.25 0.37 0.43 0.27
0.02 0.03 0.01 0.01 0.02 0.02 0.02 0.05 0.08 0.09 0.08 0.05 0.09 0.14 0.16 0.15 0.20 0.29 0.21 0.31 0.66 0.66
0.04 0.11 0.18 0.19 0.15 0.13 0.10 0.10 0.12 0.11 0.14 0.11 0.09 0.17 0.14 0.13 0.14 0.24 0.31 0.21 0.23 0.60
0.04 0.08 0.23 0.38 0.34 0.37 0.28 0.31 0.31 0.23 0.22 0.20 0.27 0.27 0.20 0.15 0.19 0.24 0.29 0.17 0.16 0.30
0.09 0.10 0.13 0.30 0.60 0.57 0.45 0.35 0.44 0.41 0.38 0.23 0.27 0.25 0.23 0.22 0.19 0.23 0.22 0.17 0.33 0.43
0.23 0.27 0.30 0.31 0.36 0.49 0.61 0.52 0.47 0.45 0.60 0.73 0.67 0.55 0.48 0.33 0.30 0.32 0.43 0.49 0.47 0.44
0.43 0.49 0.48 0.47 0.49 0.51 0.64 0.84 0.80 0.72 0.52 0.56 0.61 0.64 0.62 0.60 0.51 0.58 0.66 0.59 0.47 0.43
0.52 0.59 0.61 0.70 0.63 0.42 0.30 0.48 0.67 0.88 0.76 0.72 0.57 1.02 1.03 0.91 0.86 0.76 0.60 0.51 0.37 0.31
0.56 0.55 0.67 0.56 0.53 0.52 0.50 0.48 0.45 0.84 1.05 0.98 1.21 1.36 1.51 1.44 1.22 1.10 1.09 0.94 0.80 0.51
0.37 0.48 0.41 0.48 0.54 0.61 0.75 0.78 0.85 0.71 1.09 1.28 1.34 1.89 1.73 1.39 1.40 1.49 1.47 1.64 1.37 1.13
0.29 0.25 0.19 0.22 0.30 0.55 0.57 0.73 1.02 1.17 0.97 1.15 1.68 1.68 1.80 1.85 1.43 1.34 1.24 1.33 1.40 1.38
0.15 0.12 0.18 0.18 0.22 0.38 0.44 0.62 0.67 0.74 1.05 1.18 1.36 1.47 1.46 1.65 2.08 1.94 1.83 1.36 1.25 1.34
0.04 0.08 0.13 0.10 0.11 0.17 0.26 0.32 0.54 0.60 0.71 0.81 1.03 1.23 1.25 1.09 1.20 1.59 1.63 1.71 1.69 1.82

GFSNIL_prec_precacc24_135.txt.gz
Total_Precipitation_Accumulation
0.00 0.00 0.00 0.00 0.00 0.00 0.00 0.01 0.04 0.09 0.12 0.14 0.24 0.21 0.28 0.27 0.20 0.17 0.21 0.22 0.21 0.12
0.00 0.00 0.00 0.00 0.00 0.00 0.00 0.01 0.05 0.06 0.03 0.07 0.14 0.17 0.15 0.15 0.16 0.22 0.20 0.33 0.41 0.27
0.00 0.00 0.01 0.01 0.00 0.00 0.00 0.01 0.06 0.08 0.05 0.03 0.05 0.06 0.14 0.15 0.20 0.28 0.21 0.30 0.64 0.65
0.00 0.01 0.02 0.02 0.03 0.04 0.03 0.04 0.07 0.10 0.12 0.09 0.07 0.10 0.10 0.10 0.13 0.23 0.31 0.21 0.23 0.60
0.01 0.01 0.02 0.02 0.04 0.09 0.11 0.14 0.15 0.16 0.15 0.15 0.22 0.23 0.18 0.12 0.16 0.24 0.29 0.16 0.15 0.29
0.07 0.05 0.04 0.05 0.06 0.23 0.24 0.22 0.29 0.30 0.31 0.17 0.19 0.19 0.20 0.19 0.17 0.21 0.20 0.17 0.33 0.43
0.09 0.15 0.17 0.20 0.21 0.27 0.52 0.45 0.37 0.35 0.49 0.61 0.53 0.39 0.33 0.30 0.29 0.31 0.42 0.48 0.47 0.45
0.23 0.29 0.27 0.27 0.42 0.46 0.55 0.75 0.70 0.61 0.42 0.44 0.48 0.48 0.46 0.50 0.47 0.55 0.64 0.59 0.48 0.47
0.24 0.31 0.44 0.42 0.40 0.38 0.29 0.43 0.54 0.74 0.65 0.59 0.47 0.87 0.90 0.84 0.82 0.74 0.61 0.54 0.41 0.37
0.34 0.31 0.40 0.34 0.27 0.32 0.42 0.41 0.40 0.65 0.73 0.83 1.02 1.13 1.42 1.41 1.23 1.14 1.15 1.02 0.92 0.64
0.30 0.35 0.31 0.27 0.36 0.47 0.59 0.56 0.59 0.54 0.75 0.63 0.99 1.62 1.55 1.34 1.40 1.51 1.53 1.74 1.52 1.29
0.25 0.23 0.17 0.20 0.22 0.38 0.40 0.46 0.62 0.70 0.64 0.71 1.05 1.11 1.31 1.57 1.34 1.32 1.23 1.36 1.46 1.49
0.12 0.10 0.15 0.15 0.15 0.19 0.20 0.29 0.30 0.39 0.62 0.78 0.99 1.09 1.01 1.24 1.76 1.75 1.76 1.34 1.25 1.38
0.03 0.05 0.09 0.08 0.07 0.08 0.10 0.08 0.15 0.25 0.37 0.49 0.74 0.97 1.00 0.86 0.96 1.41 1.52 1.66 1.68 1.82

GFSNIL_prec_precacc24_138.txt.gz
Total_Precipitation_Accumulation
0.00 0.00 0.00 0.00 0.00 0.00 0.00 0.00 0.00 0.00 0.01 0.07 0.22 0.20 0.23 0.23 0.19 0.14 0.10 0.15 0.16 0.09
0.00 0.00 0.00 0.00 0.00 0.00 0.00 0.00 0.00 0.00 0.00 0.04 0.13 0.16 0.12 0.12 0.09 0.18 0.10 0.13 0.21 0.14
0.00 0.00 0.00 0.00 0.00 0.00 0.00 0.00 0.00 0.00 0.00 0.01 0.04 0.03 0.08 0.07 0.11 0.17 0.13 0.14 0.24 0.26
0.00 0.00 0.00 0.00 0.01 0.01 0.01 0.01 0.01 0.01 0.00 0.01 0.03 0.08 0.08 0.06 0.07 0.10 0.19 0.17 0.16 0.18
0.01 0.01 0.01 0.01 0.02 0.03 0.03 0.03 0.04 0.03 0.03 0.02 0.04 0.16 0.15 0.08 0.11 0.16 0.18 0.14 0.13 0.19
0.02 0.03 0.03 0.03 0.04 0.03 0.02 0.01 0.02 0.02 0.03 0.05 0.09 0.12 0.16 0.17 0.16 0.19 0.17 0.14 0.24 0.38
0.03 0.04 0.05 0.06 0.06 0.04 0.05 0.04 0.03 0.02 0.05 0.17 0.31 0.35 0.28 0.23 0.24 0.28 0.37 0.40 0.39 0.42
0.10 0.10 0.10 0.11 0.14 0.13 0.19 0.26 0.28 0.36 0.24 0.25 0.24 0.39 0.38 0.40 0.36 0.44 0.56 0.55 0.47 0.47
0.21 0.25 0.27 0.25 0.25 0.20 0.17 0.35 0.44 0.57 0.52 0.49 0.37 0.74 0.77 0.65 0.67 0.60 0.51 0.51 0.41 0.39
0.30 0.26 0.27 0.25 0.18 0.18 0.26 0.32 0.36 0.59 0.64 0.74 0.89 0.89 1.09 1.18 1.10 1.04 1.06 0.98 0.93 0.69
0.24 0.29 0.26 0.18 0.20 0.30 0.38 0.39 0.48 0.50 0.72 0.55 0.83 1.36 1.24 1.09 1.27 1.39 1.44 1.64 1.43 1.27
0.17 0.18 0.16 0.17 0.18 0.26 0.26 0.28 0.39 0.50 0.46 0.55 0.78 0.72 0.93 1.09 1.08 1.16 1.11 1.25 1.37 1.41
0.07 0.07 0.09 0.10 0.10 0.11 0.12 0.16 0.14 0.16 0.26 0.36 0.61 0.59 0.48 0.67 1.21 1.31 1.38 1.09 1.09 1.22
0.01 0.01 0.03 0.03 0.03 0.04 0.04 0.01 0.02 0.04 0.08 0.14 0.26 0.42 0.48 0.43 0.57 0.95 1.03 1.17 1.25 1.48

GFSNIL_prec_precacc24_144.txt.gz
Total_Precipitation_Accumulation
0.00 0.00 0.00 0.00 0.00 0.00 0.00 0.00 0.00 0.00 0.00 0.00 0.00 0.00 0.00 0.01 0.01 0.01 0.03 0.04 0.05 0.05
0.00 0.00 0.00 0.00 0.00 0.00 0.00 0.00 0.00 0.00 0.00 0.00 0.00 0.00 0.01 0.01 0.01 0.02 0.02 0.04 0.04 0.04
0.00 0.00 0.00 0.00 0.00 0.00 0.00 0.00 0.00 0.00 0.00 0.00 0.00 0.00 0.00 0.01 0.01 0.02 0.02 0.02 0.04 0.05
0.00 0.00 0.00 0.00 0.00 0.01 0.00 0.01 0.00 0.00 0.00 0.00 0.00 0.00 0.00 0.01 0.01 0.01 0.01 0.02 0.03 0.03
0.00 0.00 0.01 0.01 0.01 0.01 0.01 0.00 0.00 0.00 0.01 0.00 0.01 0.01 0.01 0.01 0.01 0.01 0.01 0.01 0.03 0.03
0.01 0.01 0.01 0.01 0.01 0.01 0.01 0.01 0.01 0.01 0.01 0.02 0.02 0.01 0.01 0.02 0.01 0.01 0.02 0.03 0.05 0.06
0.01 0.02 0.02 0.02 0.02 0.02 0.01 0.01 0.01 0.01 0.02 0.03 0.03 0.02 0.02 0.02 0.02 0.02 0.02 0.04 0.07 0.09
0.02 0.03 0.03 0.04 0.06 0.07 0.04 0.02 0.02 0.02 0.02 0.04 0.05 0.10 0.08 0.04 0.04 0.05 0.06 0.14 0.18 0.26
0.05 0.07 0.10 0.14 0.17 0.13 0.07 0.08 0.09 0.10 0.11 0.12 0.17 0.21 0.19 0.17 0.15 0.17 0.21 0.23 0.21 0.27
0.05 0.05 0.08 0.10 0.07 0.07 0.10 0.12 0.16 0.22 0.27 0.32 0.41 0.48 0.48 0.47 0.39 0.45 0.56 0.53 0.45 0.43
0.03 0.05 0.07 0.07 0.08 0.10 0.15 0.15 0.16 0.21 0.30 0.34 0.52 0.69 0.80 0.82 0.81 0.75 0.78 1.04 0.95 0.94
0.01 0.01 0.02 0.03 0.06 0.08 0.09 0.09 0.15 0.16 0.18 0.31 0.50 0.50 0.49 0.54 0.67 0.71 0.73 0.88 1.03 1.02
0.00 0.00 0.00 0.00 0.00 0.01 0.01 0.03 0.05 0.06 0.09 0.13 0.25 0.27 0.22 0.26 0.39 0.54 0.75 0.62 0.52 0.61
0.00 0.00 0.00 0.00 0.00 0.00 0.00 0.00 0.00 0.00 0.00 0.01 0.03 0.05 0.05 0.04 0.13 0.25 0.28 0.34 0.43 0.63

GFSNIL_prec_precacc24_147.txt.gz
Total_Precipitation_Accumulation
0.00 0.00 0.00 0.00 0.00 0.00 0.00 0.00 0.00 0.00 0.00 0.00 0.00 0.00 0.00 0.01 0.01 0.01 0.01 0.01 0.02 0.04
0.00 0.00 0.00 0.00 0.00 0.00 0.00 0.00 0.00 0.00 0.00 0.00 0.00 0.00 0.01 0.01 0.01 0.01 0.01 0.02 0.02 0.02
0.00 0.00 0.00 0.00 0.00 0.00 0.00 0.00 0.00 0.00 0.00 0.00 0.00 0.00 0.00 0.00 0.01 0.01 0.02 0.02 0.02 0.02
0.00 0.00 0.00 0.00 0.00 0.01 0.00 0.01 0.00 0.00 0.00 0.00 0.00 0.00 0.00 0.01 0.01 0.01 0.01 0.02 0.02 0.02
0.00 0.00 0.00 0.01 0.01 0.01 0.01 0.00 0.00 0.00 0.01 0.00 0.01 0.01 0.00 0.01 0.01 0.01 0.01 0.01 0.01 0.02
0.00 0.00 0.01 0.01 0.01 0.01 0.01 0.01 0.01 0.01 0.01 0.02 0.02 0.01 0.01 0.02 0.01 0.01 0.02 0.02 0.03 0.03
0.01 0.01 0.01 0.01 0.01 0.01 0.01 0.01 0.01 0.01 0.02 0.03 0.03 0.02 0.02 0.02 0.02 0.01 0.02 0.03 0.04 0.06
0.02 0.02 0.01 0.01 0.02 0.03 0.02 0.01 0.02 0.02 0.02 0.04 0.05 0.10 0.08 0.04 0.04 0.04 0.04 0.07 0.08 0.15
0.01 0.03 0.03 0.05 0.08 0.06 0.03 0.05 0.06 0.08 0.10 0.11 0.16 0.19 0.17 0.14 0.11 0.13 0.17 0.20 0.17 0.20
0.00 0.00 0.01 0.03 0.02 0.02 0.04 0.05 0.08 0.14 0.22 0.29 0.37 0.42 0.38 0.33 0.33 0.38 0.47 0.50 0.42 0.38
0.00 0.00 0.00 0.00 0.00 0.01 0.02 0.02 0.03 0.11 0.21 0.24 0.37 0.46 0.53 0.54 0.69 0.73 0.73 0.91 0.87 0.71
0.00 0.00 0.00 0.00 0.00 0.00 0.00 0.01 0.02 0.05 0.07 0.14 0.22 0.29 0.36 0.43 0.60 0.66 0.63 0.74 0.84 0.75
0.00 0.00 0.00 0.00 0.00 0.00 0.00 0.00 0.00 0.00 0.02 0.05 0.09 0.10 0.12 0.18 0.25 0.33 0.39 0.34 0.29 0.42
0.00 0.00 0.00 0.01 0.01 0.01 0.00 0.00 0.00 0.00 0.00 0.01 0.01 0.01 0.01 0.01 0.05 0.11 0.11 0.14 0.17 0.29